[[{"header":{"parameterUnit":"m.s-1","parameterCategory":1,"la1":30.2991,"la2":30.254,"lo1":-89.0895,"lo2":-89.0444,"dy":0.0017,"dx":0.0017,"nx":28,"ny":28,"refTime":"2023-08-15T03:00:00:Z","depth":0,"parameterNumber":2,"parameterNumberName":"U-component_of_WINDS"},"data":[0,0,0,0,0,0,0,0,0,0,0,0,0,0,0,0,0,0,0,0,0,0,0,0,0,0,0,0,0,0,0,0,0,0,0,0,0,0,0,0,0,0,0,0,0,0,0,0,0,0,0,0,0,0,0,0,0,0,0.6985,0.6986,0,0.7072,0.7073,0.7074,0.7099,0.7098,0.7098,0.7097,0.7186,0.7189,0.7192,0,0,0,0,0,0,0,0,0,0,0,0,0,0.6838,0.684,0.6985,0.6986,0.6987,0.7072,0.7073,0.7075,0.7099,0.7098,0.7097,0.7097,0.7186,0.7189,0.7192,0,0,0,0,0,0,0,0,0,0,0,0,0,0.6911,0.6841,0.6984,0.7009,0.7012,0.7072,0.7073,0.7075,0.7099,0.7098,0.7097,0.7097,0.7184,0.7189,0.7193,0.7234,0,0,0.7206,0.7208,0,0,0,0,0,0,0,0,0.6907,0.6916,0.7004,0.7008,0.7011,0.7074,0.7054,0.7128,0.7099,0.7066,0.7097,0.7096,0.715,0.7157,0.7175,0.7238,0.7242,0.7206,0.7209,0.7211,0.7212,0,0,0,0,0,0,0,0.6902,0.6913,0.7019,0.7006,0.701,0.7016,0.7025,0.7069,0.7111,0.7069,0.7071,0.7081,0.7151,0.7171,0.7177,0.7243,0.7206,0.721,0.7212,0.7214,0.7345,0.7346,0,0,0,0,0,0,0.6892,0.6908,0.7017,0.7022,0.6956,0.7019,0.703,0.7054,0.711,0.7118,0.7081,0.7082,0.7164,0.7172,0.718,0.7232,0.7211,0.7215,0.7217,0.7344,0.7345,0.7346,0,0,0,0,0,0,0.6889,0.6902,0.7013,0.6966,0.698,0.7022,0.705,0.7056,0.7076,0.712,0.7128,0.7093,0.7163,0.7174,0.722,0.7235,0.7216,0.722,0.7343,0.7345,0.7346,0.7336,0,0,0,0,0,0,0.6885,0.6901,0.6917,0.6966,0.6983,0.7052,0.7051,0.7059,0.7083,0.7084,0.7133,0.7141,0.7164,0.7214,0.7225,0.7241,0.7224,0.7342,0.7344,0.7345,0.7335,0.7336,0.7338,0,0,0,0,0,0.688,0.691,0.6917,0.693,0.7004,0.7053,0.7062,0.7088,0.7084,0.7101,0.7129,0.7139,0.7232,0.7219,0.7231,0.7248,0.7341,0.7343,0.7345,0.7334,0.7336,0.7338,0,0,0,0,0,0,0.6861,0.6917,0.6926,0.6973,0.7008,0.7057,0.7078,0.709,0.7126,0.7125,0.7156,0.7167,0.7211,0.7235,0.7218,0.7291,0.7287,0.7291,0.7274,0.7276,0.7278,0.7271,0.7227,0,0,0,0,0,0.6863,0.6898,0.6945,0.6982,0.6999,0.7036,0.7058,0.7075,0.7112,0.7127,0.7159,0.7194,0.7232,0.7256,0.7292,0.7339,0.7349,0.7357,0.7358,0.736,0.7363,0.7389,0.7392,0.7353,0.7353,0.7353,0,0,0.6866,0.6901,0.6921,0.6979,0.7008,0.7044,0.7048,0.7085,0.7112,0.7133,0.7178,0.7203,0.7245,0.7291,0.7313,0.7312,0.7376,0.7362,0.7363,0.7365,0.7391,0.7395,0.7398,0.7355,0.7354,0.7354,0,0,0.689,0.692,0.6955,0.6984,0.7028,0.7052,0.706,0.7107,0.7124,0.7171,0.7187,0.7219,0.7283,0.7312,0.7335,0.7371,0.7381,0.7382,0.739,0.7414,0.7418,0.742,0.7432,0.7436,0.7385,0.7385,0.7385,0,0.6889,0.6943,0.6971,0.7007,0.7032,0.7054,0.7088,0.7115,0.7169,0.7185,0.7184,0.7264,0.7294,0.7347,0.7356,0.7374,0.7384,0.7376,0.7415,0.7418,0.7421,0.7433,0.7437,0.7385,0.7385,0.7385,0.7385,0,0.6938,0.6976,0.6998,0.705,0.7077,0.7113,0.7146,0.7171,0.7186,0.721,0.7257,0.7293,0.7338,0.7352,0.7367,0.7407,0.7405,0.7409,0.7405,0.7424,0.7436,0.744,0.7385,0.7385,0.7385,0.7385,0,0,0.6952,0.7019,0.7027,0.705,0.7101,0.713,0.7167,0.7211,0.7231,0.7267,0.7298,0.7352,0.7356,0.7382,0.7401,0.7422,0.7448,0.7424,0.7425,0.7426,0.7494,0.749,0.7495,0.7455,0.7456,0.7457,0.749,0,0.6982,0.7048,0.7074,0.7128,0.7163,0.7184,0.7216,0.725,0.7274,0.7306,0.7333,0.737,0.7373,0.7388,0.7411,0.744,0.7461,0.7438,0.7484,0.7485,0.7472,0.7501,0.7497,0.7526,0.7495,0.7496,0.7496,0,0.7025,0.7062,0.7119,0.7165,0.7181,0.7209,0.7251,0.7282,0.7322,0.7338,0.7367,0.7384,0.7423,0.7418,0.7471,0.7455,0.7475,0.7492,0.7494,0.7498,0.7491,0.7505,0.7536,0.754,0.7504,0.7503,0.7503,0,0.7028,0.7092,0.7135,0.7154,0.721,0.7229,0.7253,0.7292,0.7316,0.7353,0.7369,0.741,0.7432,0.7464,0.7492,0.7485,0.7543,0.754,0.7556,0.7556,0.7567,0.7565,0.7601,0.7582,0.7582,0.7581,0.7581,0,0.7057,0.7091,0.7137,0.7163,0.7201,0.7232,0.7269,0.7294,0.7329,0.736,0.7381,0.7409,0.7445,0.7478,0.7501,0.7541,0.7552,0.7565,0.757,0.7563,0.7561,0.7576,0.7574,0.7583,0.7582,0.7582,0.7582,0,0.7067,0.7099,0.7146,0.7195,0.7208,0.7234,0.7276,0.7302,0.7327,0.7366,0.7377,0.7417,0.7457,0.7488,0.754,0.7555,0.7598,0.7605,0.7585,0.7587,0.7602,0.76,0.7647,0.7655,0.7632,0.7632,0.7632,0,0.7083,0.711,0.7161,0.7184,0.7208,0.7244,0.7269,0.7301,0.7326,0.7373,0.7393,0.7435,0.747,0.7533,0.7566,0.7606,0.7613,0.7627,0.7619,0.7611,0.7613,0.761,0.7613,0.7628,0.7628,0.7628,0.7628,0,0.7108,0.7123,0.7159,0.72,0.723,0.7264,0.7299,0.7316,0.7354,0.7381,0.7423,0.745,0.7504,0.7544,0.7588,0.7613,0.7626,0.763,0.7636,0.7628,0.7615,0.7622,0.7586,0.7629,0.7629,0.7629,0.7629,0.7629,0.7121,0.7145,0.7186,0.7225,0.7255,0.7287,0.7313,0.7342,0.7378,0.7424,0.744,0.7483,0.7522,0.7582,0.7607,0.764,0.7641,0.765,0.7652,0.7653,0.7652,0.7611,0.7648,0.7649,0.7649,0.7649,0.7649,0,0.7146,0.7174,0.721,0.7258,0.7289,0.73,0.7339,0.7364,0.7401,0.7436,0.7471,0.7518,0.7558,0.7595,0.7637,0.7656,0.7664,0.7666,0.7664,0.767,0.7649,0.764,0.7659,0.7659,0.7659,0.7659,0.7659,0.7659,0.7163,0.7205,0.7225,0.7282,0.7309,0.7351,0.7372,0.7402,0.743,0.7482,0.7516,0.754,0.7576,0.762,0.7657,0.7667,0.7681,0.7682,0.7693,0.7673,0.7671,0.767,0.7661,0.7685,0.7685,0.7711,0.7711,0.7711]},{"header":{"parameterUnit":"m.s-1","parameterCategory":1,"la1":30.2991,"la2":30.254,"lo1":-89.0895,"lo2":-89.0444,"dy":0.0017,"dx":0.0017,"nx":28,"ny":28,"refTime":"2023-08-15T03:00:00:Z","depth":0,"parameterNumber":3,"parameterNumberName":"V-component_of_WINDS"},"data":[0,0,0,0,0,0,0,0,0,0,0,0,0,0,0,0,0,0,0,0,0,0,0,0,0,0,0,0,0,0,0,0,0,0,0,0,0,0,0,0,0,0,0,0,0,0,0,0,0,0,0,0,0,0,0,0,0,0,4.8932,4.8932,0,4.8859,4.8858,4.8857,4.8794,4.8793,4.8792,4.8792,4.871,4.8708,4.8707,0,0,0,0,0,0,0,0,0,0,0,0,0,4.9013,4.9012,4.8932,4.8931,4.8931,4.8859,4.8858,4.8857,4.8794,4.8793,4.8792,4.8791,4.871,4.8708,4.8706,0,0,0,0,0,0,0,0,0,0,0,0,0,4.8962,4.9012,4.8933,4.8891,4.8886,4.8859,4.8858,4.8856,4.8794,4.8793,4.8792,4.8791,4.8711,4.8708,4.8706,4.8713,0,0,4.8699,4.8698,0,0,0,0,0,0,0,0,4.8965,4.896,4.8898,4.8894,4.8888,4.8834,4.8856,4.8808,4.8794,4.8829,4.8792,4.879,4.8751,4.8746,4.8734,4.8709,4.8705,4.8699,4.8697,4.8696,4.8696,0,0,0,0,0,0,0,4.8969,4.8962,4.8903,4.8897,4.8891,4.8874,4.8865,4.8847,4.8797,4.8826,4.8821,4.8813,4.8749,4.8736,4.8732,4.8704,4.8699,4.8697,4.8695,4.8695,4.8679,4.868,0,0,0,0,0,0,4.898,4.8966,4.8905,4.8901,4.8925,4.8873,4.8864,4.8853,4.8797,4.8787,4.8814,4.8811,4.8741,4.8734,4.8728,4.8732,4.8696,4.8694,4.8693,4.8678,4.868,4.8681,0,0,0,0,0,0,4.8982,4.8975,4.8908,4.8932,4.8922,4.8873,4.8861,4.8852,4.8839,4.8788,4.8778,4.8811,4.874,4.8732,4.8717,4.8728,4.8693,4.8691,4.8677,4.8679,4.868,4.8739,0,0,0,0,0,0,4.8984,4.8976,4.8979,4.8933,4.8921,4.89,4.8862,4.8851,4.8836,4.8831,4.8783,4.8774,4.8738,4.8721,4.8715,4.8724,4.8689,4.8676,4.8678,4.868,4.8736,4.8742,4.8748,0,0,0,0,0,4.8987,4.8998,4.898,4.8973,4.8925,4.8901,4.8894,4.8855,4.8838,4.8839,4.8807,4.8775,4.8728,4.872,4.8713,4.8721,4.8675,4.8677,4.8679,4.8733,4.8741,4.8748,0,0,0,0,0,0,4.9044,4.8991,4.897,4.8966,4.8939,4.8891,4.8892,4.8865,4.8841,4.8836,4.8787,4.8776,4.8767,4.8743,4.8735,4.8724,4.8697,4.8698,4.8741,4.8748,4.8754,4.8759,4.8687,0,0,0,0,0,4.9057,4.9045,4.8997,4.8998,4.8986,4.8941,4.893,4.8902,4.8871,4.8859,4.8825,4.8794,4.8772,4.8759,4.8736,4.8732,4.872,4.8734,4.8741,4.8746,4.8747,4.8742,4.8748,4.8688,4.8688,4.8688,0,0,4.9082,4.9051,4.9045,4.9009,4.8984,4.8971,4.8932,4.8919,4.8908,4.8856,4.8841,4.8815,4.8777,4.8768,4.8763,4.8748,4.8761,4.8749,4.8753,4.8751,4.8745,4.8751,4.8756,4.8689,4.8689,4.8689,0,0,4.912,4.9096,4.9094,4.9071,4.9035,4.9006,4.9006,4.8962,4.8943,4.8928,4.8889,4.8874,4.8837,4.8812,4.8795,4.8824,4.8794,4.8818,4.8849,4.8845,4.885,4.8854,4.8864,4.8868,4.8819,4.882,4.882,0,4.9154,4.9134,4.9095,4.9085,4.907,4.9025,4.9021,4.9,4.8958,4.8948,4.8932,4.8886,4.8857,4.8842,4.885,4.8837,4.8834,4.8823,4.8853,4.8856,4.8859,4.8868,4.8872,4.8823,4.8822,4.8822,4.8822,0,4.9178,4.9165,4.9167,4.913,4.9115,4.9108,4.9066,4.9055,4.9029,4.9001,4.8986,4.895,4.8919,4.8914,4.8887,4.8894,4.8886,4.8863,4.8834,4.8869,4.8876,4.8879,4.8827,4.8826,4.8825,4.8824,0,0,4.9249,4.9192,4.9193,4.9176,4.9134,4.9122,4.9113,4.9085,4.9076,4.9049,4.9038,4.901,4.8988,4.8968,4.8938,4.8935,4.896,4.8912,4.891,4.8921,4.8965,4.8982,4.8987,4.8941,4.8941,4.8942,4.8968,0,4.9279,4.9262,4.9227,4.922,4.9207,4.9164,4.9156,4.9129,4.9102,4.9085,4.9055,4.9035,4.9009,4.8996,4.8992,4.8959,4.8968,4.8956,4.8929,4.8928,4.8939,4.8991,4.9009,4.9035,4.897,4.8971,4.8971,0,4.9312,4.929,4.9283,4.9242,4.9235,4.9229,4.92,4.9185,4.9153,4.9134,4.9113,4.9081,4.9067,4.9042,4.9021,4.9014,4.9001,4.8983,4.8983,4.8978,4.8951,4.8986,4.9043,4.9046,4.8975,4.8975,4.8975,0,4.9363,4.9331,4.9323,4.9309,4.9262,4.9259,4.9238,4.9205,4.9191,4.9165,4.9155,4.9128,4.9113,4.9091,4.9052,4.9038,4.9035,4.9008,4.9018,4.9019,4.9018,4.9018,4.9072,4.9011,4.9011,4.9011,4.9011,0,4.94,4.9397,4.9345,4.934,4.9335,4.9294,4.929,4.9265,4.9236,4.9224,4.9185,4.9174,4.9124,4.9106,4.9075,4.9062,4.9056,4.9039,4.903,4.9042,4.9044,4.9031,4.9028,4.9012,4.9012,4.9012,4.9012,0,4.9456,4.9421,4.9409,4.9366,4.9356,4.9354,4.9316,4.9308,4.928,4.9265,4.9259,4.9214,4.9192,4.9152,4.9117,4.9096,4.9089,4.9075,4.9101,4.9095,4.9108,4.9107,4.9154,4.9158,4.9096,4.9097,4.9098,0,4.9481,4.9478,4.9436,4.9426,4.9408,4.9393,4.9378,4.9338,4.9324,4.9288,4.9284,4.926,4.9237,4.9203,4.9166,4.9139,4.9124,4.9142,4.9119,4.9131,4.9123,4.9123,4.9122,4.9147,4.9148,4.9149,4.9149,0,4.953,4.9513,4.9495,4.9472,4.9457,4.9436,4.9412,4.9406,4.936,4.9346,4.9324,4.9307,4.9273,4.9248,4.9217,4.9193,4.9163,4.9157,4.9158,4.9169,4.9184,4.9175,4.9114,4.9156,4.9155,4.9155,4.9154,4.9154,4.957,4.9566,4.9536,4.9517,4.9496,4.9475,4.9466,4.9438,4.942,4.939,4.9367,4.9347,4.9314,4.9268,4.9247,4.9229,4.9215,4.9216,4.9216,4.9217,4.9221,4.9188,4.9223,4.9223,4.9223,4.9222,4.9222,0,4.9616,4.9595,4.9578,4.9548,4.9533,4.951,4.9483,4.9471,4.9455,4.9428,4.9408,4.9382,4.9358,4.932,4.9292,4.9285,4.9271,4.9279,4.9279,4.9274,4.9236,4.9238,4.9292,4.9292,4.9292,4.9292,4.9292,4.9291,4.9638,4.9629,4.9609,4.9589,4.9567,4.9549,4.9535,4.9515,4.9494,4.9468,4.9449,4.9425,4.9393,4.9364,4.934,4.9329,4.932,4.9333,4.9318,4.9283,4.9276,4.927,4.9272,4.9332,4.9332,4.9357,4.9357,4.9357]}]]